Location: Newark
(9.4667°S, 159.8167°E)
Time: 18:25:40
(UTC+00:00)

Courier 1B Rocket - Pass Details

Date: 20 November 2019
Orbit: 920 x 1202 km, 28.2° (Epoch: 14 December)

Event Time Altitude Azimuth Distance (km) Brightness Sun altitude
Rises 14:12:56 0° 281° (W) 4,029 - -56.5°
Reaches altitude 10° 14:15:59 10° 274° (W) 3,036 - -56.2°
Maximum altitude 14:23:01 43° 205° (SSW) 1,504 - -55.2°
Drops below altitude 10° 14:29:37 10° 135° (SE) 2,849 - -54.3°
Exits shadow 14:30:12 - 133° (SE) 3,037 8.0 -54.3°
Sets 14:32:24 0° 127° (SE) 3,759 8.6 -53.9°
